[[{"header":{"parameterUnit":"m.s-1","parameterCategory":1,"la1":30.2991,"la2":30.254,"lo1":-89.0895,"lo2":-89.0444,"dy":0.0017,"dx":0.0017,"nx":28,"ny":28,"refTime":"2025-03-08T03:00:00:Z","depth":0,"parameterNumber":2,"parameterNumberName":"U-component_of_WINDS"},"data":[0,0,0,0,0,0,0,0,0,0,0,0,0,0,0,0,0,0,0,0,0,0,0,0,0,0,0,0,0,0,0,0,0,0,0,0,0,0,0,0,0,0,0,0,0,0,0,0,0,0,0,0,0,0,0,0,0,0,-0.9985,-0.9985,0,-1.0026,-1.0027,-1.0027,-1.0031,-1.0031,-1.003,-1.003,-1.0074,-1.0076,-1.0077,0,0,0,0,0,0,0,0,0,0,0,0,0,-0.991,-0.9911,-0.9984,-0.9985,-0.9985,-1.0026,-1.0027,-1.0027,-1.0031,-1.0031,-1.003,-1.0029,-1.0074,-1.0075,-1.0077,0,0,0,0,0,0,0,0,0,0,0,0,0,-0.9946,-0.9912,-0.9984,-0.9992,-0.9993,-1.0026,-1.0027,-1.0027,-1.0031,-1.003,-1.003,-1.0029,-1.0073,-1.0075,-1.0078,-1.0106,0,0,-1.0085,-1.0086,0,0,0,0,0,0,0,0,-0.9944,-0.9949,-0.9991,-0.9992,-0.9993,-1.0023,-1.0017,-1.0054,-1.0031,-1.0017,-1.003,-1.0029,-1.0058,-1.0061,-1.0071,-1.0108,-1.011,-1.0085,-1.0087,-1.0088,-1.0088,0,0,0,0,0,0,0,-0.9941,-0.9947,-1.0001,-0.9991,-0.9993,-0.9994,-0.9999,-1.0024,-1.0041,-1.0018,-1.0018,-1.0023,-1.0058,-1.0068,-1.0072,-1.011,-1.0085,-1.0087,-1.0089,-1.009,-1.0172,-1.0173,0,0,0,0,0,0,-0.9937,-0.9945,-1.0,-1.0002,-0.9966,-0.9996,-1.0001,-1.0014,-1.004,-1.0044,-1.0024,-1.0023,-1.0065,-1.0069,-1.0073,-1.0107,-1.0088,-1.009,-1.0091,-1.0172,-1.0172,-1.0173,0,0,0,0,0,0,-0.9936,-0.9942,-0.9998,-0.9974,-0.9981,-0.9998,-1.0012,-1.0015,-1.0025,-1.0045,-1.0048,-1.0031,-1.0064,-1.007,-1.0097,-1.0109,-1.0091,-1.0093,-1.0171,-1.0172,-1.0173,-1.0176,0,0,0,0,0,0,-0.9933,-0.9941,-0.9952,-0.9974,-0.9982,-1.0021,-1.0013,-1.0016,-1.0029,-1.0029,-1.0052,-1.0055,-1.0064,-1.0094,-1.01,-1.0112,-1.0095,-1.017,-1.0171,-1.0173,-1.0175,-1.0177,-1.0179,0,0,0,0,0,-0.9931,-0.9952,-0.9952,-0.9959,-0.9996,-1.0022,-1.0026,-1.0036,-1.003,-1.0041,-1.0053,-1.0054,-1.0107,-1.0097,-1.0103,-1.0116,-1.0169,-1.0171,-1.0172,-1.0174,-1.0177,-1.0179,0,0,0,0,0,0,-0.9932,-0.9955,-0.9956,-0.9984,-1.0001,-1.0022,-1.0036,-1.0038,-1.0057,-1.0056,-1.0068,-1.0073,-1.01,-1.0111,-1.0099,-1.0145,-1.0137,-1.0141,-1.0136,-1.0139,-1.0141,-1.0137,-1.0097,0,0,0,0,0,-0.9935,-0.9953,-0.9973,-0.9996,-1.0005,-1.0019,-1.0031,-1.0036,-1.0054,-1.0061,-1.0076,-1.0094,-1.0114,-1.0127,-1.0147,-1.0177,-1.0182,-1.0189,-1.0191,-1.0193,-1.0195,-1.0211,-1.0214,-1.0179,-1.0179,-1.0179,0,0,-0.9942,-0.9957,-0.9968,-0.9997,-1.001,-1.003,-1.0025,-1.0046,-1.006,-1.0065,-1.0091,-1.0102,-1.0123,-1.0152,-1.0165,-1.0162,-1.0206,-1.0195,-1.0196,-1.0197,-1.0213,-1.0216,-1.0219,-1.018,-1.018,-1.018,0,0,-0.9965,-0.9979,-0.9999,-1.0012,-1.0033,-1.0042,-1.0047,-1.0068,-1.0075,-1.0102,-1.0105,-1.0123,-1.0158,-1.0173,-1.0185,-1.0213,-1.0215,-1.0219,-1.0229,-1.0245,-1.0248,-1.025,-1.026,-1.0263,-1.0222,-1.0222,-1.0222,0,-0.9972,-1.0001,-1.001,-1.003,-1.0042,-1.0047,-1.0068,-1.008,-1.0106,-1.0115,-1.0111,-1.0155,-1.0169,-1.02,-1.0207,-1.0217,-1.0223,-1.0216,-1.0246,-1.0249,-1.0252,-1.0261,-1.0264,-1.0222,-1.0222,-1.0222,-1.0222,0,-1.0008,-1.0028,-1.0042,-1.0066,-1.008,-1.0101,-1.0113,-1.0126,-1.0131,-1.0141,-1.0168,-1.0185,-1.0208,-1.0216,-1.0221,-1.0248,-1.0246,-1.0244,-1.0237,-1.0255,-1.0264,-1.0268,-1.0222,-1.0222,-1.0222,-1.0222,0,0,-1.0032,-1.006,-1.0065,-1.0076,-1.0098,-1.0114,-1.0135,-1.0157,-1.0168,-1.0186,-1.0204,-1.0233,-1.0232,-1.0245,-1.0252,-1.0265,-1.0286,-1.0262,-1.0263,-1.0265,-1.0317,-1.0317,-1.0321,-1.0287,-1.0288,-1.0289,-1.0315,0,-1.0057,-1.0094,-1.0102,-1.0134,-1.0152,-1.0156,-1.0175,-1.0191,-1.02,-1.0218,-1.0229,-1.0249,-1.0246,-1.0254,-1.0268,-1.028,-1.0296,-1.0279,-1.0304,-1.0305,-1.0298,-1.0326,-1.0327,-1.035,-1.0318,-1.0319,-1.0319,0,-1.0092,-1.0109,-1.0142,-1.0161,-1.0169,-1.0186,-1.0206,-1.0223,-1.0241,-1.0247,-1.0262,-1.0267,-1.0289,-1.0281,-1.0312,-1.03,-1.0311,-1.0319,-1.032,-1.0322,-1.0313,-1.0328,-1.0358,-1.0362,-1.0325,-1.0325,-1.0324,0,-1.0105,-1.0137,-1.0161,-1.017,-1.0194,-1.0205,-1.0215,-1.0233,-1.0245,-1.0263,-1.0272,-1.0293,-1.0304,-1.032,-1.0331,-1.0324,-1.0361,-1.0354,-1.0367,-1.0366,-1.0374,-1.0373,-1.0405,-1.0382,-1.0382,-1.0382,-1.0382,0,-1.0132,-1.0152,-1.0167,-1.0182,-1.0204,-1.0214,-1.0236,-1.0247,-1.0263,-1.0279,-1.0285,-1.0301,-1.0314,-1.0332,-1.0341,-1.0365,-1.037,-1.0376,-1.0378,-1.0375,-1.0374,-1.0382,-1.0381,-1.0383,-1.0383,-1.0382,-1.0382,0,-1.0151,-1.0162,-1.0188,-1.0208,-1.0213,-1.0229,-1.0246,-1.0261,-1.0271,-1.0292,-1.0298,-1.0313,-1.0335,-1.0347,-1.0374,-1.038,-1.0407,-1.0408,-1.04,-1.0401,-1.0413,-1.0411,-1.0451,-1.0456,-1.043,-1.043,-1.043,0,-1.0167,-1.0183,-1.0204,-1.0215,-1.0225,-1.0244,-1.0256,-1.0266,-1.0279,-1.0301,-1.0313,-1.0334,-1.0352,-1.0386,-1.04,-1.0421,-1.0423,-1.0435,-1.0426,-1.0422,-1.0422,-1.0421,-1.0422,-1.0436,-1.0437,-1.0437,-1.0437,0,-1.0195,-1.0199,-1.0216,-1.0236,-1.025,-1.0266,-1.0282,-1.0291,-1.0304,-1.0318,-1.034,-1.0353,-1.0381,-1.0402,-1.0424,-1.0435,-1.0438,-1.044,-1.0444,-1.0441,-1.0435,-1.0438,-1.0404,-1.0439,-1.0439,-1.0439,-1.0438,-1.0438,-1.0213,-1.0226,-1.0243,-1.0262,-1.0274,-1.0289,-1.0303,-1.0314,-1.0332,-1.0354,-1.036,-1.0382,-1.04,-1.043,-1.0441,-1.0459,-1.0457,-1.0463,-1.0465,-1.0466,-1.0466,-1.0433,-1.0464,-1.0464,-1.0464,-1.0463,-1.0463,0,-1.024,-1.025,-1.0268,-1.0289,-1.0304,-1.0305,-1.0322,-1.0335,-1.0354,-1.037,-1.0387,-1.0412,-1.0432,-1.0448,-1.0469,-1.048,-1.0482,-1.0486,-1.0485,-1.0487,-1.0467,-1.0461,-1.0483,-1.0483,-1.0483,-1.0483,-1.0483,-1.0483,-1.0255,-1.0278,-1.0284,-1.0313,-1.0324,-1.0345,-1.0355,-1.0369,-1.0381,-1.0408,-1.0425,-1.0434,-1.045,-1.0473,-1.0492,-1.0496,-1.0503,-1.0506,-1.051,-1.0491,-1.0489,-1.0487,-1.0481,-1.0507,-1.0508,-1.0529,-1.0529,-1.0529]},{"header":{"parameterUnit":"m.s-1","parameterCategory":1,"la1":30.2991,"la2":30.254,"lo1":-89.0895,"lo2":-89.0444,"dy":0.0017,"dx":0.0017,"nx":28,"ny":28,"refTime":"2025-03-08T03:00:00:Z","depth":0,"parameterNumber":3,"parameterNumberName":"V-component_of_WINDS"},"data":[0,0,0,0,0,0,0,0,0,0,0,0,0,0,0,0,0,0,0,0,0,0,0,0,0,0,0,0,0,0,0,0,0,0,0,0,0,0,0,0,0,0,0,0,0,0,0,0,0,0,0,0,0,0,0,0,0,0,2.7413,2.7414,0,2.7516,2.7517,2.7518,2.7532,2.7532,2.7531,2.753,2.7637,2.7641,2.7645,0,0,0,0,0,0,0,0,0,0,0,0,0,2.7232,2.7235,2.7413,2.7414,2.7416,2.7516,2.7517,2.7519,2.7533,2.7531,2.753,2.7529,2.7636,2.7641,2.7645,0,0,0,0,0,0,0,0,0,0,0,0,0,2.732,2.7236,2.7413,2.7435,2.7438,2.7516,2.7517,2.7519,2.7533,2.7531,2.753,2.7529,2.7635,2.764,2.7646,2.771,0,0,2.7663,2.7666,0,0,0,0,0,0,0,0,2.7315,2.7327,2.743,2.7433,2.7437,2.751,2.7493,2.7583,2.7533,2.7497,2.753,2.7528,2.7596,2.7605,2.7628,2.7715,2.772,2.7664,2.7667,2.7669,2.7671,0,0,0,0,0,0,0,2.7309,2.7323,2.7454,2.7432,2.7436,2.744,2.7451,2.751,2.7554,2.75,2.7501,2.7513,2.7598,2.7622,2.763,2.7721,2.7663,2.7668,2.7672,2.7674,2.7868,2.787,0,0,0,0,0,0,2.7299,2.7318,2.7451,2.7457,2.7371,2.7445,2.7457,2.7488,2.7553,2.7561,2.7514,2.7513,2.7613,2.7624,2.7634,2.7715,2.7669,2.7675,2.7678,2.7866,2.7869,2.7871,0,0,0,0,0,0,2.7295,2.731,2.7446,2.7388,2.7405,2.7449,2.7484,2.7491,2.7515,2.7564,2.7572,2.7531,2.7612,2.7626,2.7691,2.7719,2.7677,2.7682,2.7864,2.7867,2.787,2.7876,0,0,0,0,0,0,2.729,2.7309,2.7333,2.7388,2.7408,2.7501,2.7486,2.7494,2.7524,2.7524,2.7581,2.759,2.7612,2.7683,2.7697,2.7726,2.7687,2.7862,2.7866,2.7869,2.7874,2.7879,2.7883,0,0,0,0,0,2.7283,2.7331,2.7334,2.735,2.7439,2.7502,2.7514,2.7539,2.7526,2.7552,2.7583,2.7588,2.7713,2.7689,2.7705,2.7736,2.7861,2.7865,2.7868,2.7872,2.7878,2.7883,0,0,0,0,0,0,2.7278,2.7338,2.7343,2.7409,2.7451,2.7505,2.7537,2.7544,2.759,2.7588,2.7618,2.763,2.7695,2.7722,2.7694,2.7803,2.7786,2.7793,2.7783,2.7789,2.7794,2.7786,2.7692,0,0,0,0,0,2.7285,2.733,2.7381,2.7435,2.7455,2.7493,2.7521,2.7536,2.7581,2.7598,2.7635,2.7678,2.7728,2.776,2.7808,2.7877,2.7891,2.7907,2.7911,2.7915,2.7921,2.7962,2.7971,2.7884,2.7883,2.7883,0,0,2.73,2.7338,2.7365,2.7435,2.7469,2.7517,2.7507,2.7558,2.7594,2.7606,2.767,2.7698,2.7749,2.7817,2.7849,2.7842,2.7948,2.792,2.7922,2.7927,2.7967,2.7975,2.7983,2.7886,2.7886,2.7885,0,0,2.7351,2.7383,2.7433,2.7467,2.7518,2.7543,2.7554,2.7608,2.7627,2.7691,2.7702,2.7746,2.783,2.7866,2.7895,2.7961,2.7968,2.7976,2.8001,2.804,2.8047,2.8053,2.8079,2.8087,2.7982,2.7982,2.7982,0,2.7363,2.7434,2.7458,2.7508,2.754,2.7552,2.7604,2.7636,2.77,2.7722,2.7713,2.782,2.7855,2.7932,2.7948,2.7971,2.7987,2.797,2.8044,2.805,2.8057,2.8081,2.809,2.7983,2.7982,2.7982,2.7982,0,2.7447,2.7496,2.753,2.7592,2.7627,2.7678,2.771,2.7743,2.7756,2.7782,2.7848,2.789,2.7948,2.7967,2.798,2.8047,2.8042,2.8038,2.8022,2.8065,2.8089,2.8098,2.7984,2.7983,2.7983,2.7983,0,0,2.7499,2.7573,2.7585,2.7614,2.7671,2.7711,2.7763,2.7818,2.7847,2.7891,2.7936,2.8007,2.8005,2.8038,2.8055,2.8089,2.8141,2.8082,2.8083,2.8093,2.822,2.8224,2.8234,2.8145,2.8147,2.8148,2.8217,0,2.7558,2.765,2.7673,2.7752,2.7799,2.7812,2.7858,2.7899,2.7925,2.7969,2.7998,2.8049,2.804,2.806,2.8095,2.8127,2.8167,2.8122,2.819,2.8192,2.8178,2.8247,2.8251,2.8313,2.8226,2.8227,2.8229,0,2.7639,2.7685,2.7768,2.7821,2.7842,2.7882,2.7936,2.7978,2.8025,2.8041,2.8079,2.8093,2.8149,2.8129,2.8207,2.8176,2.8205,2.8225,2.8228,2.8237,2.8214,2.8259,2.8333,2.8343,2.8243,2.8242,2.8241,0,2.7671,2.7753,2.7814,2.7838,2.79,2.7929,2.7956,2.8002,2.8035,2.8082,2.8104,2.8157,2.8186,2.8228,2.8256,2.8239,2.8334,2.8315,2.835,2.835,2.8371,2.837,2.8453,2.8386,2.8386,2.8386,2.8386,0,2.7735,2.7786,2.7829,2.7867,2.7925,2.7952,2.8009,2.8037,2.8078,2.8123,2.8137,2.8179,2.8213,2.826,2.8282,2.8345,2.8358,2.8374,2.838,2.8374,2.8372,2.8395,2.8392,2.8389,2.8388,2.8388,2.8387,0,2.7781,2.7811,2.7879,2.7933,2.7948,2.7988,2.8035,2.8073,2.8099,2.8155,2.817,2.8212,2.8268,2.83,2.837,2.8385,2.8456,2.8459,2.844,2.8443,2.8477,2.8474,2.8579,2.8595,2.8516,2.8517,2.8517,0,2.7821,2.7861,2.7919,2.7949,2.7977,2.8026,2.8059,2.8087,2.8122,2.8179,2.8211,2.8267,2.8314,2.8403,2.8441,2.8495,2.8501,2.8534,2.8509,2.8502,2.8504,2.8502,2.8507,2.8538,2.8539,2.854,2.854,0,2.789,2.7903,2.795,2.8003,2.8042,2.8085,2.8128,2.8152,2.8188,2.8226,2.8283,2.8319,2.8391,2.8448,2.8506,2.8536,2.8545,2.8547,2.8559,2.8554,2.8543,2.8551,2.8454,2.8545,2.8545,2.8544,2.8544,2.8544,2.7935,2.7972,2.8019,2.8071,2.8106,2.8146,2.8185,2.8216,2.8264,2.8324,2.8338,2.8399,2.8447,2.8525,2.8556,2.8605,2.8599,2.8615,2.862,2.8624,2.8626,2.8533,2.8615,2.8615,2.8615,2.8615,2.8615,0,2.8007,2.8037,2.8085,2.8144,2.8186,2.8189,2.8237,2.8272,2.8325,2.8369,2.8415,2.8481,2.8537,2.8578,2.8635,2.8667,2.8672,2.8681,2.868,2.8687,2.8627,2.8612,2.8675,2.8675,2.8675,2.8675,2.8675,2.8675,2.8049,2.8111,2.813,2.8211,2.8242,2.8301,2.8328,2.8366,2.8401,2.8474,2.852,2.8546,2.859,2.865,2.8702,2.8713,2.8734,2.8742,2.8754,2.8697,2.8691,2.8685,2.8671,2.8746,2.8746,2.8811,2.8811,2.8812]}]]